Location: Be?chatów
(51.3665°N, 19.3745°E)
Time: 21:15:21
(UTC+00:00)

Cosmos 2112 Rocket - Pass Details

Date: 19 May 2025
Orbit: 753 x 782 km, 74.0° (Epoch: 16 June)

Event Time Altitude Azimuth Distance (km) Brightness Sun altitude
Exits shadow 23:41:15 27° 221° (SW) 1,443 4.9 -17.4°
Maximum altitude 23:44:06 67° 297° (WNW) 833 4.2 -17.2°
Drops below altitude 10° 23:49:19 10° 21° (NNE) 2,306 7.8 -17.0°
Sets 23:51:43 0° 24° (NNE) 3,232 9.0 -16.9°
